User: anonymous   Login
Location: Bergnershof
(48.9468°N, 10.9431°E)
Time: 17:39:22
(UTC+00:00)
Language:

Cosmos 1666 - Orbit

View from above orbital plane
View from above orbital plane
View from above satellite
View from above satellite

Ground track
Ground track

The orbit data is extracted from the following two-line orbital elements,

1 15889U 85058A   21127.96471412  .00000634  00000-0  28217-4 0  9991
2 15889  82.4903  24.2161 0017304 152.5771 207.6381 15.19448816957485
Epoch (UTC): 07 May 2021 23:09:11
Eccentricity: 0.0017304
inclination: 82.4903°
perigee height: 495 km
apogee height: 519 km
right ascension of ascending node: 24.2161°
argument of perigee: 152.5771°
revolutions per day: 15.19448816
mean anomaly at epoch: 207.6381°
orbit number at epoch: 95748

The dashed part of the orbit path shows where the satellite is in the earth's shadow,  

DLR